Cloud_Cover
0 0 0 0 0 0 0 0 0 0 0 0 0 0 0 0 0 0 0 0 0 0 0 0 0 0 0 0 0 0 24 32 32 24 32 36 36 44 48 64 76 88 92 80 68 68 56 44 36 32 24 20 20 24 24 36 48 56 64 48 44 64 68 76 88 92 92 88 80 88 92 88 80 76 92 92 92 92 92 92 92 92 92 92 92 92 92 92 92 92 92 92 92 92 92 92 92 92 92 92 88 76 80
0 0 0 0 0 0 0 0 0 0 0 0 0 0 0 0 0 0 0 0 0 0 0 0 0 0 0 0 0 0 0 20 32 36 36 36 44 36 32 44 64 64 76 88 88 92 80 68 56 48 36 32 24 32 24 32 44 48 56 44 36 48 64 68 64 44 64 56 48 68 68 76 76 80 92 92 92 92 92 92 92 92 92 92 92 92 92 92 92 92 92 92 92 92 92 92 92 92 92 92 92 80 88
0 0 0 0 0 0 0 0 0 0 0 0 0 0 0 0 0 0 0 0 0 0 0 0 0 0 0 0 0 0 0 0 12 32 44 36 36 44 44 44 48 56 64 76 88 92 92 88 80 64 56 48 44 36 24 24 32 44 48 44 44 56 68 68 56 36 24 24 36 68 68 68 76 88 88 88 92 92 92 92 92 92 92 92 92 92 92 92 92 92 92 92 92 92 92 92 92 92 92 92 92 92 92
0 0 0 0 0 0 0 0 0 0 0 0 0 0 0 0 0 0 0 0 0 0 0 0 0 0 0 0 0 0 0 0 0 0 32 44 36 44 48 48 44 36 44 48 56 64 80 88 92 92 88 80 76 64 48 44 36 36 44 44 44 36 56 64 64 48 32 32 36 32 44 48 48 56 76 80 80 76 80 80 80 100 100 92 92 92 92 92 92 92 92 92 92 92 92 92 92 92 92 92 92 92 92
0 0 0 0 0 0 0 0 0 0 0 0 0 0 0 0 0 0 0 0 0 0 0 0 0 0 0 0 0 0 0 0 0 0 12 32 44 36 44 36 32 44 48 48 48 48 56 76 88 92 92 92 92 92 88 76 64 44 44 44 44 44 48 56 56 56 32 24 36 36 48 36 36 76 64 64 68 64 68 56 56 88 92 92 92 100 92 92 92 92 92 92 92 92 92 92 92 92 92 92 92 92 92
0 0 0 0 0 0 0 0 0 0 0 0 0 0 0 0 0 0 0 0 0 0 0 0 0 0 0 0 0 0 0 0 0 0 0 0 12 36 36 44 48 44 36 48 64 44 36 48 56 56 68 76 88 92 92 92 88 80 64 56 56 56 56 64 64 56 24 32 44 48 80 80 68 64 68 64 64 56 64 48 36 32 80 88 80 100 100 92 92 92 92 92 92 92 92 92 92 92 92 92 92 92 92
0 0 0 0 0 0 0 0 0 0 0 0 0 0 0 0 0 0 0 0 0 0 0 0 0 0 0 0 0 0 0 0 0 0 0 0 0 8 36 44 44 32 44 48 56 80 56 48 48 56 48 44 48 68 76 80 88 92 92 92 80 64 56 48 48 56 24 24 32 44 56 64 56 44 36 56 76 88 92 88 68 36 44 64 88 92 92 92 92 92 92 92 92 92 92 92 92 92 92 92 92 92 92
0 0 0 0 0 0 0 0 0 0 0 0 0 0 0 0 0 0 0 0 0 0 0 0 0 0 0 0 0 0 0 0 0 0 0 0 0 0 8 12 24 48 44 48 64 64 48 56 68 48 56 48 44 24 44 56 68 88 92 88 80 76 68 64 56 64 32 44 64 32 24 36 56 44 36 64 92 92 92 92 88 68 64 76 88 92 92 92 92 92 92 92 92 92 92 92 92 92 92 92 92 92 92
0 0 0 0 0 0 0 0 0 0 0 0 0 0 0 0 0 0 0 0 0 0 0 0 0 0 0 0 0 0 0 0 0 0 0 0 0 0 0 0 8 12 44 48 44 56 68 76 76 88 64 48 44 36 24 20 32 64 76 88 92 88 76 68 64 64 44 44 64 92 56 48 44 36 48 48 56 64 68 80 92 92 92 88 88 88 92 92 92 100 92 92 92 92 92 92 92 92 92 92 92 92 92
0 0 0 0 0 0 0 0 0 0 0 0 0 0 0 0 0 0 0 0 0 0 0 0 0 0 0 0 0 0 0 0 0 0 0 0 0 0 0 0 0 0 36 64 68 64 76 68 64 80 80 56 32 44 44 36 32 32 56 76 80 88 80 76 76 68 64 48 44 56 64 64 56 44 56 56 56 68 64 76 88 92 92 92 88 92 92 92 92 92 92 92 92 92 92 92 92 92 92 92 92 92 92
0 0 0 0 0 0 0 0 0 0 0 0 0 0 0 0 0 0 0 0 0 0 0 0 0 0 0 0 0 0 0 0 0 0 0 0 0 0 0 0 0 0 8 32 56 68 68 68 68 56 64 56 44 36 32 44 48 56 68 64 56 64 80 88 80 80 56 56 64 64 80 88 88 88 88 80 76 64 68 68 76 80 92 92 92 92 92 92 92 92 92 92 92 92 92 100 92 92 92 92 92 92 92
0 0 0 0 0 0 0 0 0 0 0 0 0 0 0 0 0 0 0 0 0 0 0 0 0 0 0 0 0 0 0 0 0 0 0 0 0 0 0 0 0 0 0 0 8 32 48 48 48 56 56 48 44 56 44 36 36 48 64 76 80 88 76 68 64 56 56 56 64 56 64 68 80 80 80 80 80 80 76 68 64 68 88 92 92 92 92 92 92 92 92 100 92 92 92 100 92 92 92 92 92 92 92
0 0 0 0 0 0 0 0 0 0 0 0 0 0 0 0 0 0 0 0 0 0 0 0 0 0 0 0 0 0 0 0 0 0 0 0 0 0 0 0 0 0 0 0 0 0 8 24 48 48 44 48 56 44 32 36 48 64 64 76 88 88 64 56 56 56 56 56 64 76 68 56 56 80 80 80 88 80 68 68 64 48 80 92 88 80 88 92 92 92 92 92 92 92 92 100 100 100 92 92 92 92 92
0 0 0 0 0 0 0 0 0 0 0 0 0 0 0 0 0 0 0 0 0 0 0 0 0 0 0 0 0 0 0 0 0 0 0 0 0 0 0 0 0 0 0 0 0 0 0 12 36 48 44 48 48 48 44 48 64 56 68 76 80 80 80 68 56 44 48 56 56 56 68 68 64 68 68 76 88 88 76 64 56 48 68 80 80 80 76 80 80 80 88 88 92 92 92 100 100 100 92 92 92 92 92
0 0 0 0 0 0 0 0 0 0 0 0 0 0 0 0 0 0 0 0 0 0 0 0 0 0 0 0 0 0 0 0 0 0 0 0 0 0 0 0 0 0 0 0 0 0 0 12 24 32 36 44 44 56 56 56 56 68 76 80 80 80 80 76 64 64 56 48 48 64 68 68 68 80 68 68 80 80 88 76 64 56 48 64 76 76 76 80 76 68 64 68 80 92 92 92 92 92 92 92 92 92 92
0 0 0 0 0 0 0 0 0 0 0 0 0 0 0 0 0 0 0 0 0 0 0 0 0 0 0 0 0 0 0 0 0 0 0 0 0 0 0 0 0 0 0 0 0 0 0 0 8 24 36 48 56 44 56 64 64 64 68 76 76 80 80 80 76 80 64 56 48 44 56 64 68 68 64 68 76 76 80 76 68 64 64 64 68 68 76 76 76 76 68 68 68 80 92 92 92 92 92 92 92 92 92
0 0 0 0 0 0 0 0 0 0 0 0 0 0 0 0 0 0 0 0 0 0 0 0 0 0 0 0 0 0 0 0 0 0 0 0 0 0 0 0 0 0 0 0 0 0 0 0 0 8 24 36 44 56 56 56 64 68 68 68 68 76 80 80 80 80 68 68 68 64 64 64 68 80 76 76 76 68 80 76 68 64 64 64 64 64 68 64 64 76 76 76 76 76 88 88 88 88 92 92 92 92 92
0 0 0 0 0 0 0 0 0 0 0 0 0 0 0 0 0 0 0 0 0 0 0 0 0 0 0 0 0 0 0 0 0 0 0 0 0 0 0 0 0 0 0 0 0 0 0 0 0 0 8 24 44 44 48 56 64 64 64 68 76 76 76 76 80 80 80 80 76 64 56 64 76 80 76 76 80 76 76 68 68 68 68 64 64 56 64 68 68 68 68 68 68 76 80 80 88 92 88 92 92 92 92
0 0 0 0 0 0 0 0 0 0 0 0 0 0 0 0 0 0 0 0 0 0 0 0 0 0 0 0 0 0 0 0 0 0 0 0 0 0 0 0 0 0 0 0 0 0 0 0 0 0 0 8 24 36 44 48 48 56 56 64 68 64 68 76 76 76 80 80 76 76 64 64 64 56 76 88 80 76 76 76 68 64 68 68 68 48 48 48 56 68 68 68 68 68 76 80 88 88 92 92 92 92 92
0 0 0 0 0 0 0 0 0 0 0 0 0 0 0 0 0 0 0 0 0 0 0 0 0 0 0 0 0 0 0 0 0 0 0 0 0 0 0 0 0 0 0 0 0 0 0 0 0 0 0 0 8 24 36 44 44 44 48 56 56 56 68 76 76 76 76 76 76 76 76 68 64 68 68 76 76 80 88 76 68 68 64 68 68 56 44 36 36 44 48 64 68 68 76 80 80 88 92 92 92 92 92
0 0 0 0 0 0 0 0 0 0 0 0 0 0 0 0 0 0 0 0 0 0 0 0 0 0 0 0 0 0 0 0 0 0 0 0 0 0 0 0 0 0 0 0 0 0 0 0 0 0 0 0 0 8 20 32 36 44 36 44 56 56 64 68 68 76 76 76 76 68 68 64 64 76 76 76 76 80 80 76 76 68 68 68 76 76 48 44 36 36 36 36 44 48 48 64 80 88 88 88 92 92 92
0 0 0 0 0 0 0 0 0 0 0 0 0 0 0 0 0 0 0 0 0 0 0 0 0 0 0 0 0 0 0 0 0 0 0 0 0 0 0 0 0 0 0 0 0 0 0 0 0 0 0 0 0 0 0 8 20 36 36 44 48 48 48 56 64 68 68 68 76 76 76 68 68 64 64 68 80 80 76 76 80 68 64 64 68 76 64 56 44 36 36 36 36 44 44 56 76 76 80 80 80 88 92
0 0 0 0 0 0 0 0 0 0 0 0 0 0 0 0 0 0 0 0 0 0 0 0 0 0 0 0 0 0 0 0 0 0 0 0 0 0 0 0 0 0 0 0 0 0 0 0 0 0 0 0 0 0 0 0 0 8 32 36 44 44 44 48 64 64 64 68 68 68 76 76 76 68 68 64 64 76 68 68 68 68 68 68 64 64 64 64 64 48 36 36 36 32 48 56 68 68 76 76 76 76 80
0 0 0 0 0 0 0 0 0 0 0 0 0 0 0 0 0 0 0 0 0 0 0 0 0 0 0 0 0 0 0 0 0 0 0 0 0 0 0 0 0 0 0 0 0 0 0 0 0 0 0 0 0 0 0 0 0 0 20 32 36 36 44 48 56 56 64 64 64 64 68 68 68 64 68 68 68 76 76 76 76 76 68 64 64 68 68 64 56 56 48 48 44 44 36 36 44 48 56 64 76 80 76
0 0 0 0 0 0 0 0 0 0 0 0 0 0 0 0 0 0 0 0 0 0 0 0 0 0 0 0 0 0 0 0 0 0 0 0 0 0 0 0 0 0 0 0 0 0 0 0 0 0 0 0 0 0 0 0 0 0 0 12 24 32 36 36 44 48 64 64 64 56 64 68 68 64 56 64 68 64 68 76 76 76 76 68 68 56 64 64 64 56 48 44 44 44 44 44 36 32 32 44 64 76 76
0 0 0 0 0 0 0 0 0 0 0 0 0 0 0 0 0 0 0 0 0 0 0 0 0 0 0 0 0 0 0 0 0 0 0 0 0 0 0 0 0 0 0 0 0 0 0 0 0 0 0 0 0 0 0 0 0 0 0 0 8 20 24 32 36 48 56 56 64 68 64 56 56 64 48 48 56 64 56 56 64 64 64 64 64 64 64 64 56 64 56 48 48 44 36 36 44 44 48 68 80 88 88
0 0 0 0 0 0 0 0 0 0 0 0 0 0 0 0 0 0 0 0 0 0 0 0 0 0 0 0 0 0 0 0 0 0 0 0 0 0 0 0 0 0 0 0 0 0 0 0 0 0 0 0 0 0 0 0 0 0 0 0 0 0 8 20 32 36 48 56 56 64 64 56 48 56 44 44 44 56 56 56 56 44 48 56 56 56 64 68 68 64 48 48 48 48 48 44 36 36 44 64 80 88 88
0 0 0 0 0 0 0 0 0 0 0 0 0 0 0 0 0 0 0 0 0 0 0 0 0 0 0 0 0 0 0 0 0 0 0 0 0 0 0 0 0 0 0 0 0 0 0 0 0 0 0 0 0 0 0 0 0 0 0 0 0 0 0 0 8 32 32 36 44 48 48 48 44 32 44 44 44 36 44 48 48 48 48 48 48 48 48 56 56 56 56 56 48 44 48 48 48 32 32 44 68 76 64
0 0 0 0 0 0 0 0 0 0 0 0 0 0 0 0 0 0 0 0 0 0 0 0 0 0 0 0 0 0 0 0 0 0 0 0 0 0 0 0 0 0 0 0 0 0 0 0 0 0 0 0 0 0 0 0 0 0 0 0 0 0 0 0 0 20 32 36 44 36 36 36 36 36 44 44 44 44 36 32 36 44 44 44 44 36 36 44 44 36 36 48 48 56 48 44 44 44 44 44 36 44 56
0 0 0 0 0 0 0 0 0 0 0 0 0 0 0 0 0 0 0 0 0 0 0 0 0 0 0 0 0 0 0 0 0 0 0 0 0 0 0 0 0 0 0 0 0 0 0 0 0 0 0 0 0 0 0 0 0 0 0 0 0 0 0 0 0 0 12 20 24 24 24 24 24 32 32 32 36 36 36 32 32 32 32 36 36 36 32 32 24 24 24 32 44 48 56 56 56 44 44 44 48 64 76
0 0 0 0 0 0 0 0 0 0 0 0 0 0 0 0 0 0 0 0 0 0 0 0 0 0 0 0 0 0 0 0 0 0 0 0 0 0 0 0 0 0 0 0 0 0 0 0 0 0 0 0 0 0 0 0 0 0 0 0 0 0 0 0 0 0 0 0 0 8 12 12 12 12 20 24 24 24 32 36 32 24 24 24 20 24 32 24 24 20 20 20 24 32 36 44 48 56 56 44 32 32 36
0 0 0 0 0 0 0 0 0 0 0 0 0 0 0 0 0 0 0 0 0 0 0 0 0 0 0 0 0 0 0 0 0 0 0 0 0 0 0 0 0 0 0 0 0 0 12 8 0 0 0 0 0 0 0 0 0 0 0 0 0 0 0 0 0 0 0 0 0 0 8 8 12 8 8 12 20 12 12 24 32 32 24 20 20 20 20 20 12 12 12 12 12 20 24 32 32 36 44 44 36 44 36
0 0 8 8 12 8 8 0 0 0 8 12 12 20 20 20 12 0 0 0 0 0 0 0 0 0 0 0 0 0 0 0 0 0 0 0 0 0 0 0 0 0 0 0 0 12 12 20 20 20 12 8 0 0 0 0 0 0 0 0 0 0 0 0 0 0 0 0 0 0 0 0 8 0 8 8 8 12 12 12 12 24 24 20 20 12 12 8 8 8 8 12 12 12 20 20 20 24 32 24 24 36 44
8 24 24 24 24 20 20 12 12 20 24 24 32 32 24 12 8 0 0 0 0 0 0 0 0 0 0 0 0 0 0 0 0 0 0 0 0 0 0 0 0 0 0 0 8 32 24 32 32 32 24 12 0 0 0 0 0 0 0 0 0 0 0 0 0 0 0 0 0 0 0 0 0 0 0 0 0 0 0 8 8 8 12 20 12 8 0 0 0 8 0 0 8 8 12 20 20 24 20 20 20 20 24
44 36 32 32 32 24 32 32 32 32 32 32 32 24 20 8 0 0 0 0 0 0 0 0 0 0 0 0 0 0 0 0 0 0 0 0 0 0 0 0 0 0 0 0 8 36 44 44 36 44 36 24 8 0 0 0 0 0 0 0 0 0 0 0 0 0 0 0 0 0 0 0 0 0 0 0 0 0 0 0 0 8 8 8 8 12 12 8 0 0 0 0 0 0 0 8 8 12 8 8 8 12 12
48 44 36 36 36 36 32 32 24 32 32 24 20 12 0 0 0 0 0 0 0 0 0 0 0 0 0 0 0 0 0 0 0 0 0 0 0 0 0 0 0 0 0 0 0 0 32 44 56 56 56 36 20 8 0 0 0 0 0 0 0 0 0 0 0 0 0 0 0 0 0 0 0 0 0 0 0 0 0 0 0 0 8 12 12 8 8 8 8 0 0 0 0 0 0 0 0 8 0 0 8 8 12
48 48 44 36 36 36 36 32 24 24 20 12 8 0 0 0 0 0 0 0 0 0 0 0 0 0 0 0 0 0 0 0 0 0 0 0 0 0 0 0 0 0 0 0 0 0 0 12 32 36 56 48 36 24 8 0 0 0 0 0 0 0 0 0 0 0 0 0 0 0 0 0 0 0 0 0 0 0 0 0 0 0 0 0 0 0 8 8 8 0 0 0 0 0 0 0 0 0 0 0 0 0 8
48 44 36 36 36 44 36 32 24 20 12 8 8 8 8 0 0 8 8 8 8 0 0 0 0 0 0 0 0 0 0 0 0 0 0 0 0 0 0 0 0 0 0 0 0 0 0 0 0 0 24 44 56 48 32 8 0 0 0 0 0 8 8 8 0 0 0 0 0 0 0 0 0 0 0 0 0 0 0 0 0 0 0 0 0 0 0 0 8 0 0 0 0 0 0 0 0 0 0 0 0 0 8
48 48 36 36 32 32 32 24 24 20 12 8 8 8 0 8 8 8 12 12 8 0 0 0 0 0 0 0 0 0 0 0 0 0 0 0 0 0 0 0 0 0 0 0 0 0 0 0 0 0 0 24 48 68 48 24 8 8 8 0 8 12 20 20 12 0 0 0 0 0 0 0 0 0 0 0 0 0 0 0 0 0 0 0 0 0 0 0 0 0 0 0 0 0 0 0 0 0 0 0 0 0 0
56 48 36 32 32 32 32 32 32 32 20 12 8 12 12 12 20 20 20 8 0 0 0 0 0 0 0 0 0 0 0 0 0 0 0 0 0 0 0 0 0 0 0 0 0 0 0 0 0 0 0 20 36 56 68 64 48 44 32 12 0 0 8 8 8 8 0 0 0 0 0 0 0 0 0 0 0 0 0 0 0 0 0 0 0 0 0 0 0 0 0 0 0 0 0 0 0 0 0 0 0 0 0
56 44 44 44 44 48 44 36 36 36 36 24 20 24 32 32 32 24 12 8 0 0 0 0 0 0 0 0 0 0 0 0 0 0 0 0 0 0 0 0 0 0 0 0 0 0 0 0 0 0 8 32 64 68 76 80 80 64 36 12 0 0 0 0 0 0 0 0 0 0 0 0 0 0 0 0 0 0 0 0 0 0 0 0 0 0 0 0 0 0 0 0 0 0 0 0 0 0 0 0 0 0 0
68 56 56 56 56 56 44 44 44 48 48 44 36 36 36 36 32 20 12 8 8 8 0 0 0 0 0 0 0 0 0 0 0 0 0 0 0 0 0 0 0 0 0 0 0 0 0 0 8 32 48 68 88 88 64 56 48 32 12 0 0 0 0 0 0 0 0 0 0 0 0 0 0 0 0 0 0 0 0 0 0 0 0 0 0 0 0 0 0 0 0 0 0 0 0 0 0 0 0 0 0 0 0
80 76 68 68 64 48 48 56 64 68 64 56 48 48 44 32 24 12 12 8 8 8 0 0 0 0 0 0 0 0 0 0 0 0 0 0 0 0 0 0 0 0 0 0 0 0 0 0 12 48 68 76 68 64 44 32 20 8 0 0 0 0 0 0 0 0 0 0 0 0 0 0 0 0 0 0 0 0 0 0 0 0 0 0 0 0 0 0 0 0 0 0 0 0 0 0 0 0 0 0 0 0 0
88 80 76 68 64 56 68 68 68 64 56 56 48 48 44 32 12 12 12 8 8 8 0 0 0 0 0 0 0 0 0 0 0 0 0 0 0 0 0 0 0 0 0 0 0 0 0 0 0 12 24 44 56 44 36 32 20 12 8 0 0 0 0 0 0 0 0 0 0 0 0 0 0 0 0 0 0 0 0 0 0 0 0 0 0 0 0 0 0 0 0 0 0 0 0 0 0 0 0 0 0 0 0
76 68 64 64 64 64 68 68 64 56 48 44 44 44 32 20 12 12 12 8 8 0 0 0 0 0 0 0 0 0 0 0 0 0 0 0 0 0 0 0 0 0 0 0 0 0 0 0 0 0 0 8 24 36 36 32 24 20 12 0 0 0 0 0 0 0 0 0 0 0 0 0 0 0 0 0 0 0 0 0 0 0 0 0 0 0 0 0 0 0 0 0 0 0 0 0 0 0 0 0 0 0 0
68 68 68 68 64 64 56 56 48 48 44 36 32 24 20 12 12 12 12 8 8 0 0 0 0 0 0 0 0 0 0 0 0 0 0 0 0 0 0 0 0 0 0 0 0 0 0 0 0 0 0 0 0 12 12 12 8 8 0 0 0 0 0 0 0 0 0 0 0 0 0 0 0 0 0 0 0 0 0 0 0 0 0 0 0 0 0 0 0 0 0 0 0 0 0 0 0 0 0 0 0 0 0
68 68 68 64 56 56 48 48 44 44 36 32 24 20 20 12 12 12 12 8 0 0 0 0 0 0 0 0 0 0 0 0 0 0 0 0 0 0 0 0 0 0 0 0 0 0 0 0 0 0 0 0 0 0 0 0 0 0 0 0 0 0 0 0 0 0 0 0 0 0 0 0 0 0 0 0 0 0 0 0 0 0 0 0 0 0 0 0 0 0 0 0 0 0 0 0 0 0 0 0 0 0 0
68 64 64 56 48 44 44 44 44 44 36 24 20 20 12 12 12 12 8 8 0 0 0 0 0 0 0 0 0 0 0 0 0 0 0 0 0 0 0 0 0 0 0 0 0 0 0 0 0 0 0 0 0 0 0 0 0 0 0 0 0 0 0 0 0 0 0 0 0 0 0 0 0 0 0 0 0 0 0 0 0 0 0 0 0 0 0 0 0 0 0 0 0 0 0 0 0 0 8 24 48 64 64
64 56 56 48 48 48 48 44 44 36 32 20 20 12 12 12 12 8 8 0 0 0 0 0 0 0 0 0 0 0 12 20 20 20 8 0 0 0 0 0 0 0 0 0 0 0 0 0 0 0 0 0 0 0 0 0 0 0 0 0 0 0 0 0 0 0 0 0 0 0 0 0 0 0 0 0 0 0 0 0 0 0 0 0 0 0 0 0 0 0 0 0 0 8 12 32 36 24 20 48 80 88 88
56 56 56 56 48 48 48 44 36 32 24 20 12 12 12 12 8 8 8 0 0 0 0 0 0 0 0 8 24 36 44 44 44 36 24 12 0 0 0 0 0 0 0 0 0 0 0 0 0 0 0 0 0 0 0 0 0 0 0 0 0 0 0 0 0 0 0 0 0 0 0 0 0 0 0 0 0 0 0 0 0 0 0 0 0 0 0 0 0 0 0 0 12 56 76 80 80 76 76 80 88 88 88
56 56 56 56 48 48 48 36 32 24 20 12 12 12 12 8 8 8 0 0 0 0 0 0 0 8 32 44 56 56 56 48 44 32 20 8 0 0 0 0 0 0 0 0 0 0 0 0 0 0 0 0 0 0 0 0 0 0 0 0 0 0 0 0 0 0 0 0 0 0 0 0 0 0 0 0 0 0 0 0 0 0 0 0 0 0 0 0 0 0 0 0 24 88 88 88 88 88 68 76 88 88 88
56 56 56 48 44 44 32 32 24 20 20 12 12 12 8 8 8 0 0 0 0 0 0 0 8 44 56 68 68 56 48 36 24 8 0 0 0 0 0 0 0 0 0 0 0 0 0 0 0 0 0 0 0 0 0 0 0 0 0 0 0 0 0 0 0 0 0 0 0 0 0 0 0 0 0 0 0 0 0 0 0 0 0 0 0 0 0 0 0 0 0 20 48 80 88 88 88 88 88 88 88 88 88
56 48 44 36 36 32 32 24 24 20 12 12 8 8 8 8 0 0 0 0 0 0 0 0 8 44 36 32 24 20 8 0 0 0 0 0 0 0 0 0 0 0 0 0 0 0 0 0 0 0 0 0 0 0 0 0 0 0 0 0 0 0 0 0 0 0 0 0 0 0 0 0 0 0 0 0 0 0 0 0 0 0 0 0 0 0 0 8 24 80 88 88 88 88 88 88 88 88 88 88 88 88 88
44 44 36 32 32 32 24 24 20 12 12 8 8 8 8 0 0 0 0 0 0 0 0 0 12 32 12 8 0 0 0 0 0 0 0 0 0 0 0 0 0 0 0 0 0 0 0 0 0 0 0 0 0 0 0 0 0 0 0 0 0 0 0 0 0 0 0 0 0 0 0 0 0 0 0 0 0 0 0 0 0 0 0 0 8 32 76 88 88 88 88 88 88 88 88 88 88 88 88 88 88 88 88
36 32 32 32 24 24 24 24 20 12 8 8 8 8 0 0 0 0 0 0 0 0 0 0 0 8 0 0 0 0 0 0 0 0 0 0 0 0 0 0 0 0 0 0 0 0 0 0 0 0 0 0 0 0 0 0 0 0 0 0 0 0 0 0 0 0 0 0 0 0 0 0 0 0 0 0 0 0 0 0 0 0 20 36 48 44 76 88 88 88 48 44 64 88 88 88 88 88 88 88 88 88 56
24 24 24 24 24 24 24 20 12 12 8 8 8 0 0 0 0 0 0 0 0 0 0 0 8 0 0 0 0 0 0 0 0 0 0 0 0 0 0 0 0 0 0 0 0 0 0 0 0 0 0 0 0 0 0 0 0 0 0 0 0 0 8 8 12 12 32 20 0 0 8 12 12 8 12 12 20 32 24 32 36 44 68 80 88 88 76 48 32 44 48 68 88 88 88 88 88 88 88 88 88 80 88
32 32 32 32 32 24 24 20 12 8 8 8 0 0 0 0 0 0 0 0 0 0 8 0 0 0 0 0 0 0 0 0 0 0 0 0 0 0 0 0 0 0 0 0 0 0 0 0 0 0 0 0 0 0 0 8 12 24 24 24 32 36 32 24 24 20 24 24 32 44 24 48 68 24 36 64 80 80 80 64 32 20 68 88 80 64 36 32 44 88 56 48 64 80 88 88 88 88 88 88 80 56 76
32 36 36 36 36 32 20 12 12 8 8 0 0 0 0 0 0 0 0 0 0 0 0 0 0 0 0 0 0 0 0 0 0 0 0 0 0 0 0 0 0 0 0 0 0 0 0 0 0 0 0 0 0 8 24 56 80 80 44 24 36 76 80 64 48 80 76 76 76 80 80 80 68 36 68 80 80 80 80 80 80 80 88 80 64 24 36 56 76 88 56 36 36 56 80 88 80 76 80 80 80 88 80
44 44 44 36 32 24 20 12 8 8 0 0 0 0 0 0 0 0 0 0 0 0 0 0 0 0 0 0 0 0 0 0 0 0 0 0 0 0 0 0 0 0 0 0 0 0 0 0 0 0 0 0 20 48 76 80 80 80 80 56 32 36 68 64 48 80 56 44 44 76 80 80 80 80 80 68 64 80 80 80 80 80 88 64 44 56 76 80 88 88 88 68 48 64 80 80 68 56 76 88 88 88 76